{"data":{"norad_id":65659,"epoch":"2026-05-25T01:39:26.706240Z","epoch_age_seconds":68538,"freshness":"FRESH","line1":"1 65659U 25211H   26145.06905910  .00006346  00000+0  44343-3 0  9999","line2":"2 65659  97.4457 188.9660 0001228 145.0485 215.0823 15.05656037 38535","mean_motion":15.05656037,"eccentricity":0.0001228,"inclination_deg":97.4457,"raan_deg":188.966,"arg_perigee_deg":145.0485,"mean_anomaly_deg":215.0823,"bstar":0.00044343,"rev_number":3853,"period_min":95.639373443431,"perigee_km":548.64192328268,"apogee_km":550.34334912133,"semimajor_km":6927.629636202,"source":"CELESTRAK","updated_at":"2026-05-25T13:38:20.889284Z"}}